This demonstration page uses our WeatherBlox Daily Observations layout. Learn more.

Left ArrowRight Arrow

39.51506, -84.39828

Hourly Observations for December 20, 2018

Temp ( °F °C ) Dew Point ( °F °C ) Humidity (%) Winds ( mph kmh ) Pressure ( in mb ) Visibility ( mi km ) Precip ( " mm )
12:15 am 00:15 Clear 36 2.3 33 0.5 88 88 N N/A 29.91 1013 10 16 N/A
12:35 am 00:35 Clear 36 2.2 33 0.4 88 88 N N/A 29.91 1013 10 16 N/A
12:55 am 00:55 Clear 37 2.7 33 0.4 85 85 N N/A 29.85 1011 10 16 N/A
1:15 am 01:15 Clear 37 2.6 33 0.5 86 86 N N/A 29.88 1012 10 16 N/A
1:35 am 01:35 Clear 37 2.7 33 0.7 87 87 N N/A 29.85 1011 10 16 N/A
1:55 am 01:55 Cloudy 37 2.5 34 1 90 90 N N/A 29.85 1011 10 16 N/A
2:15 am 02:15 Cloudy 37 2.7 34 1.1 89 89 N N/A 29.85 1011 10 16 N/A
2:35 am 02:35 Cloudy 37 2.9 35 1.5 91 91 N N/A 29.85 1011 10 16 N/A
2:55 am 02:55 Cloudy 38 3.1 35 1.4 89 89 N N/A 29.85 1011 10 16 N/A
3:15 am 03:15 Cloudy 37 2.9 35 1.7 92 92 N N/A 29.85 1011 10 16 N/A
3:35 am 03:35 Cloudy 38 3.2 35 1.8 91 91 N N/A 29.85 1011 10 16 N/A
3:55 am 03:55 Cloudy 38 3.6 35 1.8 88 88 N N/A 29.85 1011 10 16 N/A
4:15 am 04:15 Cloudy 38 3.5 35 1.8 89 89 N N/A 29.85 1011 10 16 N/A
4:35 am 04:35 Cloudy 38 3.5 36 2.2 91 91 N N/A 29.85 1011 10 16 N/A
4:55 am 04:55 Cloudy with Rain 39 4 36 2.4 89 89 W 5 7 29.85 1011 7 11 N/A
5:15 am 05:15 Cloudy with Light Rain 41 4.9 38 3.2 89 89 N N/A 29.85 1011 7 11 0.02 0.51
5:35 am 05:35 Cloudy with Light Rain 41 5.2 40 4.3 94 94 SSE 5 7 29.85 1011 10 16 0.03 0.76
5:55 am 05:55 Cloudy with Light Rain 43 6 41 5.1 94 94 S 3 6 29.85 1011 5 8 0.04 1.02
6:15 am 06:15 Cloudy with Light Rain 42 5.8 40 4.7 93 93 ESE 5 7 29.85 1011 7 11 0.01 0.25
6:35 am 06:35 Cloudy with Light Rain 43 6.2 40 4.7 90 90 SE 6 9 29.85 1011 10 16 0.02 0.51
6:55 am 06:55 Cloudy with Drizzle 44 6.4 41 5.1 92 92 N N/A 29.85 1011 10 16 0.02 0.51
7:15 am 07:15 Cloudy with Light Rain 42 5.3 41 4.8 97 97 N N/A 29.85 1011 5 8 0.01 0.25
7:35 am 07:35 Cloudy with Light Rain 41 5 40 4.6 97 97 N N/A 29.85 1011 3 5 0.02 0.51
7:55 am 07:55 Cloudy with Light Rain 41 5 41 4.8 99 99 E 3 6 29.85 1011 3 4 0.03 0.76
8:15 am 08:15 Cloudy with Light Rain 42 5.3 41 5.1 99 99 E 3 6 29.85 1011 2 3 N/A
8:35 am 08:35 Cloudy with Light Rain 42 5.7 42 5.4 98 98 N N/A 29.85 1011 4 6 0.01 0.25
8:55 am 08:55 Cloudy with Light Rain 42 5.7 42 5.4 98 98 N N/A 29.85 1011 4 6 0.02 0.51
9:15 am 09:15 Cloudy with Light Rain 44 6.6 43 6 96 96 SE 3 6 29.83 1010 7 11 N/A
9:35 am 09:35 Cloudy with Light Rain 44 6.8 43 6 95 95 ESE 3 6 29.83 1010 7 11 N/A
9:55 am 09:55 Cloudy with Drizzle 45 7.2 43 6.1 93 93 SE 6 9 29.83 1010 10 16 N/A
10:15 am 10:15 Cloudy 45 7.4 43 6.3 93 93 N N/A 29.83 1010 10 16 N/A
10:35 am 10:35 Cloudy 46 7.9 44 6.8 93 93 SE 3 6 29.83 1010 10 16 N/A
10:55 am 10:55 Cloudy 46 8 44 6.5 90 90 SE 6 9 29.83 1010 10 16 N/A
11:15 am 11:15 Mostly Cloudy 47 8.5 45 7.2 92 92 SSE 3 6 29.80 1009 10 16 N/A
11:35 am 11:35 Cloudy 47 8.3 44 6.8 90 90 S 5 7 29.80 1009 10 16 N/A
11:55 am 11:55 Cloudy 47 8.4 45 7.2 92 92 N N/A 29.77 1008 10 16 N/A
12:15 pm 12:15 Cloudy 47 8.2 44 6.9 92 92 N N/A 29.77 1008 10 16 N/A
12:35 pm 12:35 Cloudy 47 8.3 45 7.2 93 93 NNW 7 11 29.74 1007 10 16 N/A
12:55 pm 12:55 Cloudy 47 8.3 45 7.1 92 92 NW 3 6 29.74 1007 10 16 N/A
1:15 pm 13:15 Cloudy with Light Rain 47 8.2 45 7.3 94 94 NE 6 9 29.71 1006 5 8 0.01 0.25
1:35 pm 13:35 Cloudy with Light Rain 47 8.2 45 7.4 95 95 NE 7 11 29.71 1006 5 8 0.01 0.25
1:55 pm 13:55 Cloudy with Light Rain 47 8.2 45 7.4 95 95 NE 6 9 29.71 1006 7 11 0.02 0.51
2:15 pm 14:15 Cloudy with Light Rain 47 8.1 45 7.4 95 95 NNE 5 7 29.71 1006 7 11 N/A
2:35 pm 14:35 Cloudy with Light Rain 47 8.1 46 7.6 97 97 NE 3 6 29.71 1006 7 11 N/A
2:55 pm 14:55 Cloudy with Light Rain 46 8 45 7.4 96 96 NNE 3 6 29.71 1006 7 11 0.01 0.25
3:15 pm 15:15 Cloudy with Light Rain 46 7.9 45 7.4 97 97 N 5 7 29.68 1005 5 8 0.01 0.25
3:35 pm 15:35 Cloudy with Light Rain 46 7.9 45 7.4 97 97 N 5 7 29.68 1005 5 8 0.03 0.76
3:55 pm 15:55 Cloudy with Light Rain 46 7.9 45 7.3 96 96 N 6 9 29.65 1004 7 11 0.04 1.02
4:15 pm 16:15 Cloudy with Light Rain 46 7.8 45 7.3 97 97 N 5 7 29.65 1004 7 11 N/A
4:35 pm 16:35 Cloudy with Light Rain 46 7.7 45 7.1 96 96 N 7 11 29.65 1004 7 11 0.01 0.25
4:55 pm 16:55 Cloudy with Light Rain 46 7.6 44 6.9 95 95 N 7 11 29.62 1003 7 11 0.02 0.51
5:15 pm 17:15 Cloudy with Light Rain 46 7.5 44 6.8 95 95 N 7 11 29.62 1003 5 8 0.01 0.25
5:35 pm 17:35 Cloudy with Light Rain 45 7.3 44 6.7 96 96 NNE 9 15 29.62 1003 7 11 0.03 0.76
5:55 pm 17:55 Cloudy with Light Rain 45 7.3 44 6.6 95 95 NNE 8 13 29.62 1003 7 11 0.04 1.02
6:15 pm 18:15 Cloudy with Rain 45 7.1 44 6.5 96 96 NNE 7 11 29.62 1003 5 8 0.02 0.51
6:35 pm 18:35 Cloudy with Rain 45 7 44 6.4 96 96 NNE 6 9 29.62 1003 5 8 0.04 1.02
6:55 pm 18:55 Cloudy with Rain 45 7 43 6.3 95 95 NNE 7 11 29.59 1002 5 8 0.07 1.78
7:15 pm 19:15 Cloudy with Rain 44 6.9 43 6.1 95 95 NNE 7 11 29.59 1002 5 8 0.03 0.76
7:35 pm 19:35 Cloudy with Rain 44 6.8 43 6 95 95 NNE 7 11 29.59 1002 5 8 0.06 1.52
7:55 pm 19:55 Cloudy with Rain 44 6.6 42 5.8 95 95 N 7 11 29.56 1001 4 6 0.09 2.29
8:15 pm 20:15 Cloudy with Light Rain 44 6.5 42 5.7 95 95 NNE 8 13 29.56 1001 5 8 0.02 0.51
8:35 pm 20:35 Cloudy with Rain 44 6.5 42 5.7 95 95 N 8 13 29.56 1001 5 8 0.06 1.52
8:55 pm 20:55 Cloudy with Light Rain 44 6.4 42 5.7 95 95 N 6 9 29.53 1000 5 8 0.09 2.29
9:15 pm 21:15 Cloudy with Rain 44 6.4 42 5.7 95 95 N 8 13 29.53 1000 5 8 0.03 0.76
9:35 pm 21:35 Cloudy with Rain 44 6.4 42 5.7 95 95 N 7 11 29.53 1000 5 8 0.06 1.52
9:55 pm 21:55 Cloudy with Rain 44 6.4 42 5.7 95 95 N 8 13 29.50 999 5 8 0.10 2.54
10:15 pm 22:15 Cloudy with Rain 44 6.4 42 5.7 95 95 N 8 13 29.50 999 7 11 0.04 1.02
10:35 pm 22:35 Cloudy with Light Rain 44 6.4 42 5.6 95 95 N 7 11 29.50 999 7 11 0.06 1.52
10:55 pm 22:55 Cloudy with Light Rain 44 6.4 42 5.7 95 95 N 7 11 29.50 999 5 8 0.08 2.03
11:15 pm 23:15 Cloudy with Rain 44 6.4 42 5.7 95 95 N 8 13 29.50 999 7 11 0.02 0.51
11:35 pm 23:35 Cloudy with Light Rain 44 6.4 42 5.7 95 95 N 7 11 29.50 999 7 11 0.04 1.02
11:55 pm 23:55 Cloudy with Light Rain 43 6.3 42 5.5 95 95 NNW 9 15 29.47 998 7 11 0.05 1.27

Powered by AerisWeather